[[{"header":{"parameterUnit":"m.s-1","parameterCategory":1,"la1":30.2991,"la2":30.254,"lo1":-89.0895,"lo2":-89.0444,"dy":0.0017,"dx":0.0017,"nx":28,"ny":28,"refTime":"2024-03-15T03:00:00:Z","depth":0,"parameterNumber":2,"parameterNumberName":"U-component_of_WINDS"},"data":[0,0,0,0,0,0,0,0,0,0,0,0,0,0,0,0,0,0,0,0,0,0,0,0,0,0,0,0,0,0,0,0,0,0,0,0,0,0,0,0,0,0,0,0,0,0,0,0,0,0,0,0,0,0,0,0,0,0,0.0096,0.0095,0,0.0056,0.0055,0.0055,0.0024,0.0023,0.0023,0.0023,-0.0018,-0.0019,-0.002,0,0,0,0,0,0,0,0,0,0,0,0,0,0.0145,0.0145,0.0096,0.0095,0.0095,0.0056,0.0055,0.0055,0.0024,0.0023,0.0023,0.0023,-0.0018,-0.0019,-0.002,0,0,0,0,0,0,0,0,0,0,0,0,0,0.0117,0.0145,0.0096,0.0075,0.0072,0.0056,0.0055,0.0055,0.0024,0.0023,0.0023,0.0022,-0.0018,-0.0019,-0.002,-0.0019,0,0,-0.0024,-0.0025,0,0,0,0,0,0,0,0,0.0118,0.0115,0.0078,0.0076,0.0073,0.0044,0.0058,0.003,0.0024,0.0042,0.0023,0.0022,0.0003,-0.0,-0.0007,-0.0021,-0.0023,-0.0024,-0.0025,-0.0025,-0.0026,0,0,0,0,0,0,0,0.012,0.0116,0.008,0.0078,0.0075,0.0067,0.0063,0.0052,0.0025,0.0041,0.0038,0.0034,0.0001,-0.0005,-0.0008,-0.0023,-0.0024,-0.0025,-0.0026,-0.0026,-0.0037,-0.0037,0,0,0,0,0,0,0.0126,0.0118,0.0081,0.0079,0.0095,0.0067,0.0061,0.0054,0.0025,0.0021,0.0034,0.0033,-0.0003,-0.0006,-0.001,-0.0009,-0.0025,-0.0027,-0.0027,-0.0037,-0.0037,-0.0036,0,0,0,0,0,0,0.0127,0.0123,0.0083,0.0098,0.0092,0.0066,0.0058,0.0054,0.0047,0.0021,0.0016,0.0032,-0.0004,-0.0008,-0.0016,-0.0011,-0.0027,-0.0028,-0.0038,-0.0037,-0.0037,-0.0008,0,0,0,0,0,0,0.0128,0.0123,0.0123,0.0098,0.0091,0.0077,0.0058,0.0053,0.0045,0.0042,0.0018,0.0013,-0.0004,-0.0014,-0.0017,-0.0013,-0.0029,-0.0039,-0.0038,-0.0037,-0.0009,-0.0006,-0.0004,0,0,0,0,0,0.013,0.0133,0.0123,0.0119,0.0091,0.0077,0.0074,0.0054,0.0045,0.0045,0.0029,0.0014,-0.0011,-0.0015,-0.0019,-0.0014,-0.0039,-0.0038,-0.0037,-0.0011,-0.0007,-0.0004,0,0,0,0,0,0,0.0159,0.0129,0.0118,0.0113,0.0098,0.0072,0.0071,0.0058,0.0045,0.0043,0.0019,0.0013,0.0008,-0.0004,-0.0008,-0.0014,-0.0027,-0.0027,-0.0006,-0.0002,0.0001,0.0004,-0.003,0,0,0,0,0,0.0164,0.0156,0.013,0.0127,0.0121,0.0098,0.0091,0.0077,0.006,0.0054,0.0037,0.0021,0.001,0.0003,-0.0009,-0.0012,-0.0017,-0.0011,-0.0008,-0.0005,-0.0004,-0.0006,-0.0003,-0.0033,-0.0033,-0.0033,0,0,0.0176,0.0159,0.0154,0.0133,0.012,0.0112,0.0092,0.0084,0.0078,0.0052,0.0044,0.0031,0.0012,0.0007,0.0004,-0.0003,0.0003,-0.0004,-0.0002,-0.0002,-0.0004,-0.0001,0.0001,-0.0032,-0.0032,-0.0033,0,0,0.0193,0.0179,0.0176,0.0163,0.0144,0.0128,0.0128,0.0104,0.0095,0.0086,0.0067,0.0059,0.004,0.0028,0.0019,0.0033,0.0019,0.0029,0.0045,0.0044,0.0046,0.0048,0.0054,0.0056,0.003,0.003,0.003,0,0.021,0.0197,0.0176,0.0169,0.016,0.0137,0.0134,0.0123,0.0101,0.0095,0.0088,0.0064,0.005,0.0042,0.0045,0.0039,0.0038,0.0032,0.0047,0.0049,0.0051,0.0056,0.0058,0.0032,0.0031,0.0031,0.0031,0,0.0219,0.021,0.021,0.019,0.0181,0.0176,0.0155,0.0148,0.0135,0.0121,0.0113,0.0095,0.008,0.0077,0.0063,0.0067,0.0064,0.0052,0.0039,0.0056,0.006,0.0062,0.0034,0.0033,0.0033,0.0032,0,0,0.0252,0.0221,0.0222,0.0213,0.019,0.0183,0.0177,0.0163,0.0159,0.0144,0.0139,0.0124,0.0114,0.0104,0.0089,0.0088,0.0101,0.0077,0.0076,0.0083,0.0106,0.0115,0.0118,0.0092,0.0092,0.0092,0.0107,0,0.0266,0.0256,0.0237,0.0232,0.0225,0.0203,0.0198,0.0184,0.0171,0.0162,0.0147,0.0138,0.0124,0.0118,0.0116,0.01,0.0106,0.0099,0.0088,0.0087,0.0094,0.012,0.013,0.0145,0.0109,0.0109,0.0109,0,0.0281,0.0269,0.0264,0.0243,0.0239,0.0235,0.0221,0.0213,0.0197,0.0187,0.0177,0.0161,0.0154,0.0142,0.0133,0.0129,0.0123,0.0114,0.0115,0.0113,0.01,0.012,0.0149,0.0152,0.0112,0.0112,0.0112,0,0.0308,0.0289,0.0284,0.0277,0.0252,0.025,0.024,0.0223,0.0216,0.0204,0.0199,0.0185,0.0178,0.0168,0.015,0.0142,0.0143,0.0129,0.0136,0.0136,0.0137,0.0137,0.0167,0.0132,0.0132,0.0132,0.0132,0,0.0326,0.0324,0.0296,0.0293,0.029,0.0269,0.0267,0.0254,0.024,0.0234,0.0214,0.0209,0.0185,0.0177,0.0162,0.0157,0.0154,0.0146,0.0143,0.0149,0.015,0.0145,0.0144,0.0133,0.0133,0.0132,0.0132,0,0.0354,0.0336,0.0329,0.0307,0.0301,0.03,0.0281,0.0277,0.0263,0.0256,0.0253,0.0231,0.0221,0.0201,0.0185,0.0176,0.0175,0.0167,0.0181,0.0178,0.0187,0.0186,0.0214,0.0217,0.018,0.0181,0.0181,0,0.0368,0.0366,0.0343,0.0339,0.0329,0.0321,0.0314,0.0293,0.0287,0.0269,0.0267,0.0256,0.0246,0.0231,0.0213,0.0201,0.0194,0.0205,0.0192,0.0199,0.0196,0.0196,0.0196,0.0208,0.0208,0.0209,0.0209,0,0.0393,0.0384,0.0375,0.0363,0.0356,0.0345,0.0333,0.033,0.0307,0.03,0.029,0.0282,0.0267,0.0256,0.0242,0.0231,0.0217,0.0213,0.0214,0.0221,0.0229,0.0226,0.0189,0.0213,0.0212,0.0212,0.0212,0.0212,0.0415,0.0413,0.0397,0.0388,0.0377,0.0367,0.0363,0.0349,0.034,0.0327,0.0315,0.0306,0.029,0.027,0.026,0.0253,0.0246,0.0247,0.0248,0.0248,0.0251,0.023,0.025,0.025,0.025,0.025,0.025,0,0.0441,0.043,0.0421,0.0406,0.0399,0.0387,0.0373,0.0368,0.0361,0.0348,0.0339,0.0328,0.0317,0.0299,0.0287,0.0285,0.0279,0.0283,0.0283,0.0281,0.0258,0.0259,0.0289,0.0289,0.0289,0.0289,0.0289,0.0289,0.0453,0.0449,0.0439,0.043,0.0419,0.0411,0.0404,0.0395,0.0385,0.0374,0.0365,0.0354,0.0339,0.0326,0.0316,0.0311,0.0308,0.0315,0.0308,0.0287,0.0283,0.0279,0.028,0.0314,0.0314,0.0332,0.0332,0.0332]},{"header":{"parameterUnit":"m.s-1","parameterCategory":1,"la1":30.2991,"la2":30.254,"lo1":-89.0895,"lo2":-89.0444,"dy":0.0017,"dx":0.0017,"nx":28,"ny":28,"refTime":"2024-03-15T03:00:00:Z","depth":0,"parameterNumber":3,"parameterNumberName":"V-component_of_WINDS"},"data":[0,0,0,0,0,0,0,0,0,0,0,0,0,0,0,0,0,0,0,0,0,0,0,0,0,0,0,0,0,0,0,0,0,0,0,0,0,0,0,0,0,0,0,0,0,0,0,0,0,0,0,0,0,0,0,0,0,0,3.1659,3.166,0,3.177,3.1771,3.1772,3.1775,3.1774,3.1773,3.1771,3.1884,3.1888,3.1892,0,0,0,0,0,0,0,0,0,0,0,0,0,3.1449,3.1453,3.1659,3.166,3.1661,3.1769,3.1771,3.1773,3.1775,3.1774,3.1772,3.1771,3.1882,3.1887,3.1893,0,0,0,0,0,0,0,0,0,0,0,0,0,3.1548,3.1454,3.1658,3.1676,3.1679,3.1769,3.1771,3.1773,3.1776,3.1774,3.1772,3.177,3.1881,3.1887,3.1893,3.1973,0,0,3.1913,3.1916,0,0,0,0,0,0,0,0,3.1542,3.1556,3.1672,3.1675,3.1678,3.1757,3.1738,3.184,3.1776,3.1739,3.1771,3.1769,3.1843,3.1852,3.1878,3.1979,3.1983,3.1913,3.1917,3.192,3.1922,0,0,0,0,0,0,0,3.1536,3.1551,3.1703,3.1674,3.1677,3.1678,3.169,3.1758,3.1801,3.1742,3.1742,3.1756,3.1844,3.1871,3.188,3.1985,3.1913,3.1919,3.1923,3.1925,3.2159,3.2162,0,0,0,0,0,0,3.1525,3.1545,3.1699,3.1706,3.1604,3.1684,3.1697,3.1733,3.18,3.1809,3.1757,3.1755,3.1862,3.1873,3.1884,3.1984,3.192,3.1926,3.193,3.2157,3.216,3.2162,0,0,0,0,0,0,3.1521,3.1539,3.1695,3.1626,3.1646,3.1689,3.173,3.1737,3.1764,3.1812,3.1819,3.1777,3.186,3.1875,3.1952,3.1988,3.1929,3.1935,3.2154,3.2158,3.2161,3.2184,0,0,0,0,0,0,3.1515,3.1537,3.1568,3.1626,3.1649,3.176,3.1733,3.174,3.1775,3.1774,3.1833,3.184,3.186,3.1942,3.1958,3.1996,3.194,3.2151,3.2156,3.216,3.218,3.2188,3.2194,0,0,0,0,0,3.1507,3.157,3.157,3.1588,3.1689,3.1762,3.1776,3.1797,3.1778,3.181,3.1841,3.1838,3.1981,3.195,3.1968,3.2008,3.2149,3.2155,3.216,3.2177,3.2186,3.2194,0,0,0,0,0,0,3.1514,3.1577,3.1579,3.1662,3.1707,3.1763,3.1803,3.1806,3.1857,3.1854,3.1878,3.1891,3.1968,3.1995,3.1959,3.209,3.2063,3.2072,3.207,3.2079,3.2086,3.2078,3.1945,0,0,0,0,0,3.1525,3.158,3.1632,3.17,3.1723,3.1759,3.1792,3.1805,3.1852,3.1871,3.1908,3.1954,3.2009,3.2045,3.2099,3.2183,3.2197,3.222,3.2227,3.2233,3.2241,3.2289,3.2301,3.218,3.218,3.218,0,0,3.1549,3.159,3.1623,3.1703,3.1739,3.1796,3.1775,3.1835,3.1878,3.188,3.1956,3.1984,3.2037,3.2118,3.2156,3.2144,3.2277,3.2239,3.2244,3.2249,3.2296,3.2308,3.2318,3.2184,3.2183,3.2183,0,0,3.1621,3.1657,3.1719,3.1756,3.1812,3.1836,3.1851,3.1907,3.1926,3.2002,3.2006,3.2056,3.215,3.2189,3.222,3.2308,3.2309,3.2325,3.2363,3.241,3.2419,3.2428,3.2461,3.2472,3.2332,3.2332,3.2332,0,3.1643,3.1729,3.175,3.1811,3.1847,3.1852,3.1916,3.195,3.202,3.2045,3.203,3.215,3.2186,3.2277,3.2299,3.2323,3.2342,3.2319,3.2416,3.2425,3.2433,3.2465,3.2477,3.2334,3.2334,3.2334,3.2333,0,3.1754,3.1813,3.1857,3.1926,3.1966,3.2027,3.2058,3.2096,3.2105,3.2131,3.2209,3.2252,3.2315,3.2337,3.2346,3.243,3.2421,3.2411,3.2384,3.2446,3.2477,3.2489,3.2337,3.2336,3.2335,3.2335,0,0,3.1835,3.1915,3.1931,3.1963,3.2025,3.2072,3.2133,3.2196,3.2229,3.2276,3.233,3.241,3.2401,3.2437,3.2451,3.2492,3.2561,3.2477,3.2478,3.2492,3.2658,3.2667,3.2681,3.2561,3.2563,3.2565,3.2654,0,3.1916,3.2027,3.2048,3.2145,3.2201,3.2207,3.2261,3.2305,3.2331,3.2382,3.2409,3.2467,3.245,3.2472,3.2512,3.2544,3.2595,3.2537,3.2612,3.2614,3.26,3.2696,3.2706,3.2788,3.2666,3.2668,3.267,0,3.2025,3.2077,3.218,3.2236,3.226,3.2308,3.2368,3.2416,3.2466,3.2482,3.2523,3.2532,3.2597,3.2566,3.2657,3.2617,3.2649,3.2669,3.2673,3.2682,3.2647,3.271,3.2815,3.2828,3.2688,3.2687,3.2685,0,3.2076,3.2171,3.2246,3.2273,3.2339,3.2374,3.2403,3.2451,3.2488,3.2539,3.2564,3.2622,3.2654,3.2699,3.2724,3.2699,3.2814,3.2784,3.2829,3.2829,3.2855,3.2853,3.2968,3.2872,3.2871,3.2871,3.2871,0,3.2165,3.2228,3.227,3.2316,3.2387,3.2411,3.248,3.2509,3.2552,3.2604,3.2612,3.266,3.2689,3.2742,3.2761,3.2834,3.2848,3.2863,3.2868,3.2864,3.2862,3.2886,3.2882,3.2874,3.2874,3.2873,3.2872,0,3.2235,3.2265,3.2347,3.2404,3.242,3.247,3.2518,3.2563,3.2588,3.2654,3.2671,3.271,3.2773,3.2802,3.2878,3.2891,3.2975,3.2975,3.2959,3.2961,3.3005,3.3002,3.3141,3.3161,3.305,3.3051,3.3052,0,3.2291,3.234,3.2402,3.2438,3.2469,3.2525,3.2563,3.2588,3.2627,3.2689,3.2726,3.2789,3.2841,3.2941,3.2976,3.3035,3.3038,3.3083,3.3047,3.3042,3.3041,3.3039,3.3045,3.309,3.3091,3.3092,3.3092,0,3.2388,3.2401,3.2455,3.2515,3.256,3.2609,3.2656,3.2684,3.2717,3.276,3.2825,3.2865,3.2944,3.3007,3.3068,3.3098,3.3102,3.3103,3.3117,3.3114,3.3104,3.3112,3.2979,3.31,3.31,3.3099,3.3099,3.3098,3.2455,3.2499,3.255,3.2611,3.2649,3.2693,3.2739,3.277,3.2825,3.2892,3.2902,3.2971,3.3021,3.3104,3.3137,3.3191,3.3181,3.32,3.3206,3.3211,3.3214,3.3093,3.3202,3.3202,3.3202,3.3201,3.3201,0,3.2554,3.2587,3.2643,3.2709,3.2757,3.2755,3.2808,3.2848,3.2909,3.2955,3.3006,3.3081,3.3142,3.3182,3.3244,3.328,3.3283,3.3296,3.3294,3.3302,3.3219,3.3202,3.3292,3.3292,3.3292,3.3292,3.3292,3.3292,3.2612,3.2687,3.2706,3.2801,3.2834,3.2902,3.2933,3.2974,3.3011,3.3094,3.3145,3.3171,3.3215,3.3281,3.3337,3.3347,3.337,3.3384,3.3394,3.3317,3.3307,3.3298,3.3282,3.3388,3.3388,3.3472,3.3473,3.3473]}]]